Location: Bazinghen
(50.8246°N, 1.6616°E)
Time: 09:23:38
(UTC+00:00)

IGS 5A - Pass Details

Date: 09 April 2020
Orbit: 585 x 587 km, 97.6° (Epoch: 19 May)

Event Time Altitude Azimuth Distance (km) Brightness Sun altitude
Exits shadow 20:20:36 27° 111° (ESE) 1,143 4.3 -15.3°
Maximum altitude 20:22:07 37° 68° (ENE) 925 4.2 -15.5°
Drops below altitude 10° 20:25:58 10° 1° (N) 1,922 6.5 -16.0°
Sets 20:28:14 0° 353° (N) 2,828 7.6 -16.3°
